www.pogodaiklimat.ru

Погода и климат >> Архив погоды >> Боливия >> Рейес


ПОГОДА в Рейесе

  • Прогноз погоды в Рейесе
  • Монитор погоды в Рейесе

АРХИВ ПОГОДЫ в Рейесе

Время (UTC), дата Ветер
(напр.,м/с)
 
Видим.   Явления Облачность Т
(С)
Тd
(С)
f
(%)
Тe
(С)
Тes
(С)
Комфортность P
(гПа)
Po
(гПа)
Тmin
(С)
Tmax
(С)
R
(мм)
R24
(мм)
S
(см)
12 18.08 штиль 0 10 км дым ясно +17.4 +16.2 93 +17 +20 1012.0 991.0 +16.0
15 18.08 С 3 20 км дым ясно +29.6 +21.0 60 +37 +49 очень
душно
1014.1 996.0
18 18.08 С 5 10 км дым ясно +33.2 +20.9 49 +41 +48 опасность
перегрева
1013.1 992.2
21 18.08 С 3 10 км дым ясно +33.0 +19.9 46 +39 +41 очень
душно
1011.1 990.2 +34.5
12 19.08 штиль 0 7000 м дым 8/5 600 м
[Cb cap Ci]
+21.4 +20.9 97 +27 +28 душно 1015.6 994.8 +19.5
15 19.08 штиль 0 6000 м дым 8/0 2000 м
[Ac und]
+25.0 +22.3 85 +33 +42 очень
душно
1017.4 996.2
18 19.08 ЮВ 2 5000 м дым 8/4 600 м
[Cu hum Ac und]
+28.0 +22.5 72 +37 +42 очень
душно
1016.1 995.0
21 19.08 ЮВ 2 5000 м дым 4/1 600 м
[Cu hum Ci fib]
+28.0 +21.0 66 +35 +37 очень
душно
1013.0 992.1 +29.2
12 20.08 штиль 0 8000 м дым 9/6 750 м
[Sc Ac und]
+20.0 +13.7 67 +22 +22 комфорт 1018.0 996.8 +19.2
15 20.08 ЮВ 2 8000 м дым 9/0
[Ac und]
+22.4 +15.7 66 +26 +33 жарко 1020.0 998.6
18 20.08 ЮВ 2 8000 м 9/0 2000 м
[Ac und]
+25.4 +16.4 57 +29 +35 душно 1018.4 997.2
21 20.08 штиль 0 7000 м дым 8/0 2000 м
[Ac und]
+24.4 +18.0 68 +29 +30 душно 1016.6 995.4 +25.6
12 21.08 штиль 0 8000 м дым 6/0 2000 м
[Ac und]
+17.0 +16.1 94 +17 +19 1019.1 997.7 +15.8
15 21.08 ЮВ 4 8000 м дым ясно +27.0 +12.9 42 +29 +39 жарко 1021.1 999.7
18 21.08 ЮВ 2 8000 м дым ясно +30.0 +14.9 40 +32 +49 жарко 1018.8 997.6
21 21.08 штиль 0 8000 м дым ясно +30.6 1016.0 994.9 +31.0
12 22.08 штиль 0 7000 м дым ясно +16.2 +15.6 96 +16 +19 1016.4 995.2 +14.5
15 22.08 штиль 0 5000 м дым ясно +29.0 +19.8 58 +35 +56 опасность
солнечного
удара
1017.6 996.4
18 22.08 СЗ 2 5000 м дым ясно +32.0 +20.1 49 +38 +55 опасность
солнечного
удара
1015.1 994.0
21 22.08 С 2 5000 м дым ясно +33.0 +20.5 48 +40 +42 очень
душно
1012.9 992.0 +33.6
12 23.08 ЮВ 2 5000 м дым ясно +22.8 +18.7 78 +29 +31 очень
душно
1018.5 997.6 +18.5
15 23.08 ЮВ 3 5000 м дым ясно +27.4 +1.3 18 +25 +38 комфорт 1020.4 999.2
18 23.08 ЮВ 3 5000 м дым ясно +30.8 +16.0 41 +34 +47 очень
душно
1018.1 997.0
21 23.08 штиль 0 5000 м дым ясно +31.0 +18.7 48 +36 +39 очень
душно
1015.2 994.4 +31.6
12 24.08 штиль 0 6000 м дым 3/0 2000 м
[Ac lent]
+17.8 +16.6 93 +18 +20 1015.4 994.3 +15.0
15 24.08 штиль 0 17 км дым ясно +30.3 +17.9 47 +35 +56 опасность
солнечного
удара
1016.4 995.2
18 24.08 штиль 0 7000 м дым ясно +33.2 +19.1 43 +38 +59 опасность
солнечного
удара
1014.2 993.0
21 24.08 штиль 0 7000 м дым ясно +32.7 +21.0 50 +40 +43 очень
душно
1011.7 990.8 +34.7

 

Местоположение метеостанции Рейес (Боливия): широта -14.31 долгота -67.38 высота над уровнем моря 140 м.

В архиве по умолчанию представлена погода в Рейесе за последнюю неделю. Архивные данные за месяц целиком и за предыдущие месяцы, начиная с января 2011 года, Вы можете получить, выбрав интересующий диапазон дат из раскрывающегося списка и нажав кнопку "Ввод!".


*Определитесь, кто Вы:
робот инопланетянин человек

Внимание! Время в таблицах - всемирное. Для получения местного времени необходимо прибавить поправку, которая равна -4 ч.

Смотрите также архив погоды в соседних городах и на ближайших метеорологических станциях:

Погода в Рурренабаке (Боливия) (26 км)
Погода в Санта-Розе (Боливия) (54 км)
Погода в Сан-Борхе (Боливия) (83 км)
Погода в Сан Игнасио де Moксосе (Боливия) (203 км)
Погода в Санта-Ане (Боливия) (219 км)
Погода в Бауресе (Боливия) (219 км)
Погода в Овежуйо (Боливия) (256 км)
Погода в Ла-Пасе (Боливия) (259 км)
Погода в Тринидаде (Боливия) (272 км)
Погода в Пуэрто Мальдонадо (Перу) (275 км)

Пояснения к столбцам:

Ветер - указаны скорость ветра в м/с - средняя за 10 мин, порывы в срок и между сроками (в фигурных скобках) и направление, откуда дует ветер: С - северный, СВ - северо-восточный, В - восточный, ЮВ - юго-восточный, Ю - южный, ЮЗ - юго-западный, З - западный, СЗ - северо-западный.
Видимость - горизонтальная дальность видимости в метрах или километрах. При видимости от 1 до 10 км при отсутствии осадков обычно наблюдается дымка, при ухудшении видимости до 1 км и менее - туман. В сухую погоду видимость может ухудшаться дымом, пылью или мглою.
Явления - указаны атмосферные явления, наблюдавшиеся в срок или в последний час перед сроком; фигурными скобками обозначены явления, наблюдавшиеся между сроками (за 1-3 часа до срока); квадратными скобками обозначены град или гололедные отложения с указанием их диаметра в мм.
Облачность - указаны через наклонную черту общая и нижняя облачность в баллах и высота нижней границы облаков в метрах; квадратными скобками обозначены формы облаков: Ci - перистые, Cs - перисто-слоистые, Cc - перисто-кучевые, Ac - высококучевые, As - высокослоистые, Sc - слоисто-кучевые, Ns - слоисто-дождевые, Cu - кучевые, Cb - кучево-дождевые. Подробнее классификацию облаков см. в Атласе облаков (PDF).
T - Температура воздуха - температура, измеренная на высоте 2 м над землей.
Td - Температура точки росы - температура, при понижении до которой содержащийся в воздухе водяной пар достигнет насыщения.
f - Относительная влажность воздуха - влажноcть воздуха, измеренная на высоте 2 м над землей.
Te - Эффективная температура - температура, которую ощущает одетый по сезону человек в тени. Характеристика душности погоды. При расчете учитывается влияние влажности воздуха и скорости ветра на теплоощущения человека.
Tes - Эффективная температура на солнце - температура, которую ощущает человек, с поправкой на солнечный нагрев. Характеристика знойности погоды. Зависит от высоты солнца над горизонтом, облачности и скорости ветра. Ночью, в пасмурную погоду, а также при ветре 12 м/с и более поправка равна нулю.
P - Атмосферное давление - приведенное к уровню моря атмосферное давление.
Po - Атмосферное давление - измеренное на уровне метеостанции атмосферное давление.
Tmin - Минимальная температура - минимум температуры воздуха на высоте 2 м над землей.
Tmax - Максимальная температура - максимум температуры воздуха на высоте 2 м над землей.
R - Количество осадков - Количество выпавших осадков за период времени, мм. При наведении курсора мыши на число - период времени, за который выпало указанное количество осадков.
R24 - Количество осадков - Количество выпавших осадков за 24 часа, мм.
S - Снежный покров - Высота снежного покрова, см. При наведении курсора мыши на число - состояние снежного покрова и степень покрытия местности в баллах.